SNEZKA Weather Reports


time (UTC)temp
F
wind
direction
speed
knots
gust
knots
rain 1hr
in
rain 24hr
in
rain mn
in
humidity
%
barometer
mb
20260506202033 43 320 12.2 0.0 0.00 0.00 0.00 86
20260506192149 45 280 12.2 0.0 0.00 0.00 0.00 75
20260506182047 45 300 20.9 0.0 0.00 0.00 0.00 81
20260506172013 46 260 1.7 0.0 0.00 0.00 0.00 75
20260506162231 46 240 6.1 0.0 0.00 0.00 0.00 81
20260506152046 48 270 6.1 0.0 0.00 0.00 0.00 81
20260506142026 46 310 6.1 17.4 0.00 0.00 0.00 93
20260506132026 45 260 10.4 22.6 0.00 0.00 0.00 93
20260506122026 43 270 7.8 20.9 0.00 0.00 0.00 99
20260506111959 41 270 10.4 22.6 0.00 0.00 0.00 99
20260506102200 41 250 17.4 28.7 0.00 0.00 0.00 99
20260506081958 41 260 13.9 31.3 0.00 0.00 0.00 99
20260506071959 39 240 19.1 37.4 0.00 0.00 0.00 99
20260506062000 39 250 17.4 39.1 0.00 0.00 0.00 99
20260506042158 41 250 19.1 45.2 0.00 0.00 0.00 99
20260506032001 41 240 17.4 33.0 0.00 0.00 0.00 99
20260506021959 43 250 22.6 0.0 0.00 0.00 0.00 81
20260506012100 43 290 19.1 0.0 0.00 0.00 0.00 99
20260506001957 43 220 22.6 0.0 0.00 0.00 0.00 99
20260505231957 45 230 22.6 0.0 0.00 0.00 0.00 99
20260505221958 45 150 15.6 0.0 0.00 0.00 0.00 99
20260505212046 46 110 12.2 0.0 0.00 0.00 0.00 87